[[{"header":{"parameterUnit":"m.s-1","parameterCategory":1,"la1":30.2991,"la2":30.254,"lo1":-89.0895,"lo2":-89.0444,"dy":0.0017,"dx":0.0017,"nx":28,"ny":28,"refTime":"2025-01-01T09:00:00:Z","depth":0,"parameterNumber":2,"parameterNumberName":"U-component_of_WINDS"},"data":[0,0,0,0,0,0,0,0,0,0,0,0,0,0,0,0,0,0,0,0,0,0,0,0,0,0,0,0,0,0,0,0,0,0,0,0,0,0,0,0,0,0,0,0,0,0,0,0,0,0,0,0,0,0,0,0,0,0,-0.4465,-0.4466,0,-0.4513,-0.4514,-0.4514,-0.4484,-0.4483,-0.4481,-0.448,-0.4533,-0.4536,-0.4538,0,0,0,0,0,0,0,0,0,0,0,0,0,-0.435,-0.4352,-0.4465,-0.4466,-0.4466,-0.4513,-0.4514,-0.4514,-0.4485,-0.4483,-0.4481,-0.4479,-0.4532,-0.4535,-0.4539,0,0,0,0,0,0,0,0,0,0,0,0,0,-0.4399,-0.4353,-0.4465,-0.4457,-0.4457,-0.4513,-0.4514,-0.4515,-0.4485,-0.4483,-0.4481,-0.4479,-0.4531,-0.4535,-0.4539,-0.4607,0,0,-0.4552,-0.4553,0,0,0,0,0,0,0,0,-0.4397,-0.4404,-0.4457,-0.4458,-0.4457,-0.449,-0.4493,-0.4546,-0.4485,-0.4474,-0.448,-0.4478,-0.4521,-0.4526,-0.454,-0.461,-0.4612,-0.4552,-0.4555,-0.4556,-0.4557,0,0,0,0,0,0,0,-0.4393,-0.4402,-0.4484,-0.4458,-0.4458,-0.4452,-0.4456,-0.4503,-0.4509,-0.4475,-0.4473,-0.4479,-0.452,-0.4536,-0.4541,-0.4613,-0.4552,-0.4556,-0.4558,-0.456,-0.4741,-0.4744,0,0,0,0,0,0,-0.439,-0.4399,-0.4483,-0.4486,-0.4421,-0.4456,-0.4461,-0.4482,-0.4508,-0.451,-0.4481,-0.4477,-0.453,-0.4536,-0.4542,-0.4625,-0.4556,-0.456,-0.4562,-0.4739,-0.4742,-0.4744,0,0,0,0,0,0,-0.4388,-0.4398,-0.4481,-0.4442,-0.4452,-0.446,-0.4484,-0.4484,-0.4499,-0.4513,-0.4514,-0.4495,-0.4528,-0.4537,-0.4591,-0.4626,-0.4562,-0.4566,-0.4736,-0.474,-0.4743,-0.4789,0,0,0,0,0,0,-0.4385,-0.4397,-0.4423,-0.4442,-0.4454,-0.4528,-0.4486,-0.4487,-0.4506,-0.4502,-0.4526,-0.4528,-0.4527,-0.4585,-0.4595,-0.463,-0.4569,-0.4733,-0.4738,-0.4742,-0.4785,-0.4794,-0.4802,0,0,0,0,0,-0.4381,-0.4434,-0.4424,-0.4434,-0.4486,-0.453,-0.4537,-0.4533,-0.4509,-0.4535,-0.4543,-0.4528,-0.462,-0.4591,-0.4602,-0.4639,-0.4731,-0.4737,-0.4742,-0.4781,-0.4792,-0.4801,0,0,0,0,0,0,-0.442,-0.4437,-0.4426,-0.4487,-0.4507,-0.4525,-0.4558,-0.4545,-0.4574,-0.4569,-0.4565,-0.457,-0.4628,-0.4638,-0.4606,-0.4706,-0.4672,-0.468,-0.4698,-0.4708,-0.4717,-0.4714,-0.4572,0,0,0,0,0,-0.4435,-0.4469,-0.4482,-0.4536,-0.4546,-0.455,-0.4569,-0.4565,-0.4586,-0.4595,-0.4607,-0.4629,-0.4663,-0.4686,-0.4718,-0.4785,-0.4791,-0.4816,-0.4824,-0.4831,-0.4839,-0.4876,-0.4888,-0.4762,-0.4762,-0.4762,0,0,-0.4469,-0.4482,-0.4504,-0.4544,-0.4559,-0.4595,-0.4558,-0.4598,-0.4625,-0.4601,-0.4654,-0.4663,-0.4688,-0.4749,-0.4777,-0.476,-0.4874,-0.4838,-0.4843,-0.4847,-0.4882,-0.4894,-0.4905,-0.4766,-0.4765,-0.4764,0,0,-0.4548,-0.4561,-0.4607,-0.4622,-0.4645,-0.4647,-0.4658,-0.4677,-0.4683,-0.4734,-0.4718,-0.475,-0.4808,-0.4827,-0.4843,-0.4928,-0.4915,-0.4938,-0.4984,-0.502,-0.503,-0.5039,-0.5071,-0.5082,-0.4945,-0.4945,-0.4945,0,-0.4587,-0.464,-0.4632,-0.4673,-0.4692,-0.467,-0.4717,-0.4733,-0.4765,-0.4779,-0.4759,-0.4832,-0.4846,-0.4912,-0.4932,-0.4946,-0.496,-0.4937,-0.5029,-0.5038,-0.5046,-0.5076,-0.5088,-0.4948,-0.4948,-0.4948,-0.4947,0,-0.4687,-0.4724,-0.4759,-0.4789,-0.4811,-0.4855,-0.4855,-0.4878,-0.4871,-0.4876,-0.4929,-0.4946,-0.4981,-0.4995,-0.4989,-0.506,-0.5049,-0.5029,-0.4995,-0.5061,-0.5089,-0.5101,-0.4952,-0.4951,-0.495,-0.495,0,0,-0.4796,-0.482,-0.4833,-0.4847,-0.4869,-0.4898,-0.4941,-0.4974,-0.4995,-0.5017,-0.5054,-0.5103,-0.5084,-0.5103,-0.5099,-0.513,-0.5198,-0.5106,-0.5107,-0.5124,-0.5278,-0.5295,-0.5308,-0.5188,-0.519,-0.5191,-0.5277,0,-0.4878,-0.4952,-0.4945,-0.5016,-0.505,-0.5029,-0.5067,-0.5085,-0.509,-0.5121,-0.5126,-0.5162,-0.5133,-0.5145,-0.5175,-0.5183,-0.5229,-0.5176,-0.5224,-0.5225,-0.5221,-0.5323,-0.534,-0.542,-0.5287,-0.5289,-0.5291,0,-0.4984,-0.5009,-0.5083,-0.51,-0.5114,-0.5148,-0.5177,-0.5206,-0.5227,-0.5228,-0.5248,-0.5238,-0.5282,-0.5245,-0.5306,-0.5271,-0.5289,-0.5296,-0.5299,-0.5305,-0.5264,-0.5334,-0.5445,-0.5458,-0.5308,-0.5306,-0.5305,0,-0.5058,-0.511,-0.5161,-0.5173,-0.5193,-0.5218,-0.5228,-0.5246,-0.5266,-0.5292,-0.5305,-0.5336,-0.5353,-0.5378,-0.5377,-0.5349,-0.5439,-0.5401,-0.5443,-0.5443,-0.5465,-0.5465,-0.5584,-0.5474,-0.5473,-0.5473,-0.5473,0,-0.5152,-0.5198,-0.5194,-0.5226,-0.5277,-0.5269,-0.532,-0.5328,-0.5344,-0.5377,-0.536,-0.5392,-0.5387,-0.5419,-0.5418,-0.547,-0.5478,-0.5481,-0.5481,-0.5484,-0.5484,-0.5498,-0.5493,-0.5476,-0.5476,-0.5475,-0.5474,0,-0.5244,-0.5243,-0.5297,-0.5311,-0.5316,-0.5354,-0.5366,-0.5397,-0.5399,-0.5441,-0.5451,-0.5456,-0.5492,-0.5492,-0.5535,-0.5534,-0.5598,-0.559,-0.5591,-0.559,-0.5633,-0.563,-0.5767,-0.5786,-0.5661,-0.5663,-0.5664,0,-0.5305,-0.534,-0.5358,-0.5378,-0.5389,-0.5423,-0.5443,-0.5436,-0.5457,-0.5482,-0.551,-0.5545,-0.5573,-0.5632,-0.564,-0.5673,-0.5667,-0.5713,-0.5672,-0.5674,-0.567,-0.5669,-0.5673,-0.5722,-0.5723,-0.5724,-0.5725,0,-0.5414,-0.5412,-0.5441,-0.5469,-0.5493,-0.5516,-0.5537,-0.5554,-0.555,-0.5575,-0.5612,-0.5633,-0.5676,-0.5711,-0.5742,-0.5753,-0.5739,-0.5737,-0.5749,-0.5754,-0.5754,-0.5757,-0.5615,-0.5735,-0.5734,-0.5733,-0.5733,-0.5732,-0.5495,-0.5525,-0.5542,-0.5575,-0.5589,-0.5608,-0.5638,-0.5643,-0.5673,-0.5706,-0.57,-0.5742,-0.5761,-0.58,-0.5814,-0.5847,-0.5831,-0.5848,-0.5852,-0.5857,-0.5863,-0.5746,-0.5852,-0.5852,-0.5852,-0.5851,-0.5851,0,-0.5605,-0.5614,-0.5644,-0.5673,-0.5699,-0.568,-0.5702,-0.5726,-0.5762,-0.578,-0.5807,-0.585,-0.5883,-0.5893,-0.5926,-0.595,-0.5945,-0.5959,-0.5959,-0.5962,-0.5874,-0.5862,-0.5963,-0.5963,-0.5963,-0.5963,-0.5963,-0.5963,-0.5665,-0.5716,-0.5715,-0.5772,-0.5781,-0.5821,-0.5835,-0.5853,-0.5868,-0.5916,-0.5943,-0.5948,-0.5963,-0.5997,-0.6027,-0.6029,-0.6043,-0.6061,-0.606,-0.5979,-0.5968,-0.5957,-0.5945,-0.6063,-0.6063,-0.6145,-0.6146,-0.6147]},{"header":{"parameterUnit":"m.s-1","parameterCategory":1,"la1":30.2991,"la2":30.254,"lo1":-89.0895,"lo2":-89.0444,"dy":0.0017,"dx":0.0017,"nx":28,"ny":28,"refTime":"2025-01-01T09:00:00:Z","depth":0,"parameterNumber":3,"parameterNumberName":"V-component_of_WINDS"},"data":[0,0,0,0,0,0,0,0,0,0,0,0,0,0,0,0,0,0,0,0,0,0,0,0,0,0,0,0,0,0,0,0,0,0,0,0,0,0,0,0,0,0,0,0,0,0,0,0,0,0,0,0,0,0,0,0,0,0,-6.33,-6.3302,0,-6.3452,-6.3454,-6.3456,-6.338,-6.3376,-6.3372,-6.3368,-6.3521,-6.3528,-6.3536,0,0,0,0,0,0,0,0,0,0,0,0,0,-6.294,-6.2947,-6.33,-6.3302,-6.3304,-6.3452,-6.3454,-6.3456,-6.338,-6.3375,-6.3371,-6.3366,-6.3518,-6.3527,-6.3536,0,0,0,0,0,0,0,0,0,0,0,0,0,-6.3095,-6.295,-6.33,-6.3284,-6.3284,-6.3452,-6.3454,-6.3457,-6.3381,-6.3375,-6.3369,-6.3364,-6.3515,-6.3526,-6.3538,-6.3729,0,0,-6.3573,-6.3578,0,0,0,0,0,0,0,0,-6.3086,-6.3108,-6.3284,-6.3285,-6.3286,-6.3391,-6.3383,-6.3548,-6.3383,-6.3344,-6.3368,-6.3361,-6.3482,-6.3496,-6.3537,-6.3736,-6.3742,-6.3574,-6.3581,-6.3586,-6.359,0,0,0,0,0,0,0,-6.3076,-6.3101,-6.336,-6.3287,-6.3288,-6.3268,-6.3283,-6.3414,-6.3445,-6.3347,-6.3342,-6.3361,-6.3481,-6.3526,-6.3541,-6.3745,-6.3574,-6.3584,-6.3592,-6.3596,-6.4107,-6.4113,0,0,0,0,0,0,-6.3066,-6.3093,-6.3355,-6.3365,-6.3169,-6.3279,-6.3297,-6.3363,-6.3443,-6.3449,-6.3366,-6.3357,-6.351,-6.3527,-6.3546,-6.3775,-6.3586,-6.3597,-6.3604,-6.4101,-6.4109,-6.4116,0,0,0,0,0,0,-6.3059,-6.309,-6.3349,-6.3227,-6.3259,-6.3292,-6.3367,-6.3369,-6.3414,-6.3457,-6.3462,-6.3407,-6.3506,-6.3529,-6.3684,-6.3779,-6.3602,-6.3613,-6.4093,-6.4103,-6.4112,-6.4235,0,0,0,0,0,0,-6.3049,-6.3088,-6.3162,-6.323,-6.3266,-6.3487,-6.3373,-6.3376,-6.3435,-6.3425,-6.3497,-6.3503,-6.3503,-6.3667,-6.3696,-6.3792,-6.3622,-6.4084,-6.4097,-6.4109,-6.4223,-6.4248,-6.4269,0,0,0,0,0,-6.3036,-6.3189,-6.3166,-6.3198,-6.3359,-6.3492,-6.3513,-6.351,-6.3443,-6.3517,-6.3545,-6.3501,-6.3764,-6.3684,-6.3715,-6.3816,-6.4078,-6.4094,-6.4108,-6.4212,-6.4243,-6.4269,0,0,0,0,0,0,-6.3131,-6.3198,-6.3173,-6.3353,-6.3418,-6.3479,-6.3572,-6.3542,-6.3626,-6.3613,-6.3605,-6.3622,-6.3783,-6.3814,-6.3724,-6.4005,-6.3911,-6.3932,-6.3979,-6.4009,-6.4032,-6.4021,-6.3632,0,0,0,0,0,-6.3173,-6.3277,-6.3329,-6.3483,-6.3517,-6.3539,-6.3597,-6.359,-6.3656,-6.3682,-6.3721,-6.3786,-6.3883,-6.3947,-6.4039,-6.4226,-6.4241,-6.4311,-6.4335,-6.4354,-6.4373,-6.4475,-6.4507,-6.4164,-6.4164,-6.4164,0,0,-6.326,-6.331,-6.3376,-6.3503,-6.3553,-6.3659,-6.3563,-6.368,-6.3759,-6.37,-6.3849,-6.388,-6.3951,-6.4123,-6.4201,-6.4155,-6.4471,-6.4373,-6.4387,-6.4397,-6.4493,-6.4526,-6.4554,-6.4174,-6.4173,-6.4171,0,0,-6.3475,-6.3523,-6.3657,-6.3708,-6.3784,-6.3798,-6.383,-6.3897,-6.3915,-6.4065,-6.4023,-6.4116,-6.4283,-6.4336,-6.4385,-6.462,-6.4583,-6.465,-6.4773,-6.4872,-6.4899,-6.4923,-6.5007,-6.5037,-6.4668,-6.4669,-6.4669,0,-6.3574,-6.3735,-6.3729,-6.385,-6.3907,-6.386,-6.3995,-6.4044,-6.4146,-6.4186,-6.4133,-6.4343,-6.4387,-6.4572,-6.4629,-6.467,-6.4706,-6.4642,-6.4895,-6.4919,-6.4942,-6.5022,-6.5054,-6.4677,-6.4676,-6.4675,-6.4674,0,-6.3853,-6.3965,-6.4064,-6.4165,-6.4233,-6.436,-6.4373,-6.4442,-6.4429,-6.4448,-6.46,-6.4652,-6.4754,-6.4797,-6.4784,-6.4979,-6.4949,-6.4896,-6.4801,-6.4982,-6.5057,-6.5088,-6.4688,-6.4685,-6.4683,-6.4681,0,0,-6.4133,-6.4229,-6.4266,-6.4311,-6.4391,-6.4477,-6.4602,-6.4702,-6.4762,-6.4833,-6.4938,-6.5081,-6.5032,-6.5088,-6.508,-6.5167,-6.5351,-6.5104,-6.5105,-6.5149,-6.5569,-6.561,-6.5646,-6.5326,-6.5332,-6.5336,-6.5564,0,-6.4354,-6.4574,-6.4573,-6.4776,-6.4879,-6.4835,-6.4943,-6.5003,-6.5024,-6.5114,-6.5136,-6.5238,-6.5166,-6.52,-6.5284,-6.5311,-6.5435,-6.5294,-6.5423,-6.5427,-6.5408,-6.5685,-6.5728,-6.594,-6.5593,-6.5598,-6.5602,0,-6.4642,-6.4724,-6.4938,-6.5004,-6.5047,-6.5145,-6.5237,-6.5323,-6.539,-6.5399,-6.5462,-6.544,-6.5566,-6.5467,-6.5639,-6.5544,-6.5595,-6.5617,-6.5625,-6.5638,-6.5526,-6.5706,-6.6007,-6.604,-6.5648,-6.5644,-6.5641,0,-6.4826,-6.499,-6.5139,-6.5179,-6.5259,-6.5329,-6.5365,-6.5426,-6.5487,-6.5567,-6.5606,-6.5699,-6.575,-6.5822,-6.5826,-6.5753,-6.6,-6.5901,-6.6011,-6.6011,-6.6066,-6.6063,-6.6382,-6.6098,-6.6098,-6.6097,-6.6097,0,-6.5074,-6.5207,-6.5223,-6.5315,-6.5462,-6.5458,-6.5604,-6.5633,-6.5688,-6.5784,-6.575,-6.5841,-6.5841,-6.5933,-6.5936,-6.6079,-6.6102,-6.6112,-6.6112,-6.6117,-6.6115,-6.6151,-6.6137,-6.6106,-6.6104,-6.6102,-6.6101,0,-6.5305,-6.5321,-6.5481,-6.5544,-6.5562,-6.5668,-6.5721,-6.5808,-6.5826,-6.5948,-6.5976,-6.6004,-6.611,-6.6121,-6.6245,-6.6247,-6.642,-6.6403,-6.6398,-6.6396,-6.6506,-6.6496,-6.686,-6.6907,-6.6592,-6.6595,-6.6597,0,-6.5463,-6.5564,-6.5638,-6.5701,-6.5741,-6.5842,-6.5904,-6.5903,-6.5969,-6.6053,-6.613,-6.6234,-6.6317,-6.6489,-6.6519,-6.6613,-6.6599,-6.672,-6.6613,-6.6614,-6.6602,-6.6597,-6.6607,-6.6741,-6.6745,-6.6747,-6.675,0,-6.5741,-6.5745,-6.5836,-6.5931,-6.6006,-6.608,-6.6149,-6.6202,-6.621,-6.6285,-6.6395,-6.6459,-6.6586,-6.6689,-6.6782,-6.6817,-6.6786,-6.6783,-6.6814,-6.682,-6.6813,-6.6819,-6.6456,-6.6775,-6.6772,-6.6771,-6.6769,-6.6768,-6.5942,-6.603,-6.6096,-6.6199,-6.6251,-6.6317,-6.6402,-6.643,-6.6522,-6.6626,-6.6619,-6.674,-6.6804,-6.6925,-6.6968,-6.7061,-6.7021,-6.7065,-6.7077,-6.7088,-6.71,-6.6798,-6.7078,-6.7077,-6.7077,-6.7076,-6.7075,0,-6.6219,-6.626,-6.6354,-6.6453,-6.6534,-6.6497,-6.6572,-6.6642,-6.6749,-6.6812,-6.6895,-6.702,-6.712,-6.7158,-6.7255,-6.7323,-6.7311,-6.7349,-6.7344,-6.7353,-6.713,-6.7094,-6.7357,-6.7357,-6.7357,-6.7357,-6.7357,-6.7357,-6.6374,-6.6521,-6.6532,-6.6705,-6.6744,-6.6863,-6.6909,-6.6969,-6.7019,-6.7162,-6.7245,-6.727,-6.7322,-6.7423,-6.7513,-6.7521,-6.7559,-6.7603,-6.7606,-6.7397,-6.7369,-6.7342,-6.7308,-6.7611,-6.7612,-6.7821,-6.7823,-6.7824]}]]